Starlink 4493

operational
NORAD ID: 53533 Int'l Des: 2022-101 Owner: SPXS Country: US Constellation: starlink
LEOCIRCULAR

Über Starlink 4493

Beschreibung wird geladen...

Live-Position

3D-Globus wird geladen...

Nächste Überflüge

Höhenverlauf

Altitude vs Time

uPlot chart will show altitude changes over time

Zweizeiliger Elementsatz

1 53533U 22101G 25352.52138179 .00000847 00000-0 71318-4 0 9991
2 53533 53.2189 78.4887 0001591 101.0704 259.0467 15.08844077183919
Epoch: 18. Dez. 2025 • Age: 9 hours

Aktueller Status

Höhe 553.9 km
Geschwindigkeit 7.58 km/s
Subsatellitenpunkt -40.01°S, 16.88°W
Startdatum 19. Aug. 2022
Alter 3.3 years
Typ internet

Technische Details

Klassifizierung Payload
Masse 300.00 kg
Trockenmasse 290.00 kg
Gesamtmasse 300.00 kg
Länge 0.20 m
Durchmesser 2.80 m
Spannweite 9.00 m
Form Box + pan
Hersteller SPXS
Bus-Typ Starlink
Phasenstatus In Orbit
Besitzer/Staat SPXS/US

Große Konstellationen

Loading constellations...